Location: Bear Valley Community Church - Hurst
(32.8460°N, 97.1828°W)
Time: 07:17:25
(UTC+00:00)

Cosmos 1515 Rocket - Pass Details

Date: 06 July 2022
Orbit: 604 x 630 km, 82.5° (Epoch: 17 August)

Event Time Altitude Azimuth Distance (km) Brightness Sun altitude
Rises 07:47:35 0° 20° (NNE) 2,884 8.1 -31.7°
Reaches altitude 10° 07:51:32 10° 56° (NE) 1,967 6.7 -31.4°
Maximum altitude 07:52:49 11° 73° (ENE) 1,890 6.4 -31.3°
Enters shadow 07:53:55 10° 88° (E) 1,943 6.3 -31.3°
